Powrót do katalogu

METEOR 1-17 DEB

LostPO
NORAD 57544·DEBRIS·🇷🇺 Russia

Wystrzelony Apr 24, 1974 z Plesetsk Cosmodrome

Loading…

Następne Przeloty (najbliższe 24 godziny)

TLE

NieaktualneSource: Space-Track

Epoka: Aug 5, 2024, 07:52 UTC

1 57544U 74025K   24218.32795280  .00008607  00000-0  45683-2 0  9995
2 57544  81.2107 239.7073 0011215  97.6579 262.5867 14.13438262 61074

Śledź METEOR 1-17 DEB w czasie rzeczywistym z AllMySat

Download on the App Store